EW3836 Weather Reports


Display with metric or nautical units.
time (UTC)temp
F
wind
direction
speed
MPH
gust
MPH
rain 1hr
in
rain 24hr
in
rain mn
in
humidity
%
barometer
mb
20260507003047 66 285 0.0 0.0 0.00 0.00 0.00 52 1010.5
20260507001548 67 304 0.0 0.0 0.00 0.00 0.00 50 1010.5
20260507000042 68 304 0.0 0.0 0.00 0.00 0.00 47 1010.5
20260506234545 68 310 0.0 0.0 0.00 0.00 0.00 48 1010.5
20260506233039 69 306 0.0 0.0 0.00 0.00 0.00 49 1010.4
20260506231548 68 302 0.0 0.0 0.00 0.00 0.00 48 1010.3
20260506230050 69 271 0.0 0.0 0.00 0.00 0.00 51 1010.4
20260506224532 68 261 0.0 0.0 0.00 0.00 0.00 53 1010.4
20260506223045 69 251 0.0 0.0 0.00 0.00 0.00 53 1010.7
20260506221530 69 306 0.0 0.0 0.00 0.00 0.00 46 1010.9
20260506220030 70 325 0.0 0.0 0.00 0.00 0.00 47 1011.0
20260506214524 71 315 0.0 0.0 0.00 0.00 0.00 47 1011.0
20260506213026 71 302 0.0 0.0 0.00 0.00 0.00 44 1011.0
20260506211526 70 286 0.0 0.0 0.00 0.00 0.00 45 1011.0
20260506210019 71 244 0.0 0.0 0.00 0.00 0.00 48 1011.0
20260506204514 69 242 0.0 0.0 0.00 0.00 0.00 52 1011.1
20260506203020 68 242 0.0 0.0 0.00 0.00 0.00 54 1011.0
20260506201515 67 257 0.0 0.0 0.00 0.00 0.00 57 1011.0
20260506200006 67 249 0.0 0.0 0.00 0.00 0.00 54 1011.0
20260506194503 66 235 0.0 0.0 0.00 0.00 0.00 58 1011.1
20260506193001 66 252 0.0 0.0 0.00 0.00 0.00 58 1011.3
20260506191600 66 262 0.0 0.0 0.00 0.00 0.00 56 1011.4
20260506190056 65 263 0.0 0.0 0.00 0.00 0.00 55 1011.5
20260506184606 65 243 0.0 0.0 0.00 0.00 0.00 60 1011.7
20260506183101 64 244 0.0 0.0 0.00 0.00 0.00 61 1011.8
20260506181551 64 242 0.0 0.0 0.00 0.00 0.00 58 1012.0
20260506180052 65 252 0.0 0.0 0.00 0.00 0.00 59 1012.2
20260506174547 64 242 0.0 0.0 0.00 0.00 0.00 56 1012.1
20260506173050 64 273 0.0 0.0 0.00 0.00 0.00 57 1012.3
20260506171542 63 223 0.0 0.0 0.00 0.00 0.00 57 1012.2
20260506170059 63 248 0.0 0.0 0.00 0.00 0.00 58 1012.1
20260506164536 62 252 0.0 0.0 0.00 0.00 0.00 57 1012.1
20260506163035 62 217 0.0 0.0 0.00 0.00 0.00 58 1012.1
20260506161534 61 218 0.0 0.0 0.00 0.00 0.00 58 1012.2
20260506160035 61 237 0.0 0.0 0.00 0.00 0.00 58 1012.1
20260506154532 60 221 0.0 0.0 0.00 0.00 0.00 61 1012.1
20260506153027 60 254 0.0 0.0 0.00 0.00 0.00 59 1012.2
20260506151526 60 252 0.0 0.0 0.00 0.00 0.00 59 1012.1
20260506150023 60 252 0.0 0.0 0.00 0.00 0.00 60 1012.0
20260506144521 59 214 0.0 0.0 0.00 0.00 0.00 59 1012.0
20260506143028 58 239 0.0 0.0 0.00 0.00 0.00 60 1011.8
20260506141517 58 207 0.0 0.0 0.00 0.00 0.00 63 1011.8
20260506140015 56 177 0.0 0.0 0.00 0.00 0.00 64 1011.7
20260506134513 55 150 0.0 0.0 0.00 0.00 0.00 64 1011.5
20260506133011 55 199 0.0 0.0 0.00 0.00 0.00 63 1011.3
20260506131510 56 202 0.0 0.0 0.00 0.00 0.00 61 1011.1
20260506130011 56 182 0.0 0.0 0.00 0.00 0.00 60 1011.0
20260506124503 57 175 0.0 0.0 0.00 0.00 0.00 58 1010.8
20260506123001 58 187 0.0 0.0 0.00 0.00 0.00 58 1010.7
20260506121600 58 169 0.0 0.0 0.00 0.00 0.00 58 1010.6
20260506120059 59 194 0.0 0.0 0.00 0.00 0.00 58 1010.5
20260506114557 58 173 0.0 0.0 0.00 0.00 0.00 59 1010.4
20260506113056 57 173 0.0 0.0 0.00 0.00 0.00 60 1010.3
20260506111554 57 150 0.0 0.0 0.00 0.00 0.00 61 1010.3
20260506110054 56 174 0.0 0.0 0.00 0.00 0.00 63 1010.4
20260506104552 57 170 0.0 0.0 0.00 0.00 0.00 62 1010.4
20260506103054 57 166 0.0 0.0 0.00 0.00 0.00 61 1010.3
20260506101549 57 171 0.0 0.0 0.00 0.00 0.00 59 1010.2
20260506100050 58 211 0.0 0.0 0.00 0.00 0.00 57 1010.1
20260506094546 58 201 0.0 0.0 0.00 0.00 0.00 55 1010.0
20260506093045 59 179 0.0 0.0 0.00 0.00 0.00 54 1010.0
20260506091542 58 150 0.0 0.0 0.00 0.00 0.00 55 1009.9
20260506090047 57 146 0.0 0.0 0.00 0.00 0.00 59 1009.8
20260506084548 57 142 0.0 0.0 0.00 0.00 0.00 59 1009.7
20260506083035 57 144 0.0 0.0 0.00 0.00 0.00 60 1009.7
20260506081538 57 137 0.0 0.0 0.00 0.00 0.00 60 1009.7
20260506073026 57 123 0.0 0.0 0.00 0.00 0.00 63 1009.5
20260506071524 57 135 0.0 0.0 0.00 0.00 0.00 63 1009.4
20260506061540 59 151 0.0 0.0 0.00 0.00 0.00 61 1009.1
20260506044517 60 154 0.0 0.0 0.00 0.00 0.00 53 1008.9
20260506043015 61 147 0.0 0.0 0.00 0.00 0.00 53 1008.7
20260506041508 62 115 0.0 0.0 0.00 0.00 0.00 53 1008.5
20260506040009 62 107 0.0 0.0 0.00 0.00 0.00 51 1008.4
20260506034507 63 107 0.0 0.0 0.00 0.00 0.00 51 1008.3
20260506033010 63 111 0.0 0.0 0.00 0.00 0.00 53 1008.1
20260506031506 63 51 0.0 0.0 0.00 0.00 0.00 53 1007.9
20260506030006 64 51 0.0 0.0 0.00 0.00 0.00 54 1007.8
20260506024517 66 49 0.0 0.0 0.00 0.00 0.00 54 1007.9
20260506023005 68 52 0.0 0.0 0.00 0.00 0.00 52 1007.8
20260506021504 69 49 0.0 0.0 0.00 0.00 0.00 51 1007.8
20260506020006 70 44 0.0 0.0 0.00 0.00 0.00 50 1007.7
20260506014502 70 12 0.0 0.0 0.00 0.00 0.00 50 1007.7
20260506013001 71 24 0.0 0.0 0.00 0.00 0.00 51 1007.6
20260506011501 71 17 0.0 0.0 0.00 0.00 0.00 49 1007.5
20260506010001 70 46 0.0 0.0 0.00 0.00 0.00 52 1007.5
20260506004604 69 315 0.0 0.0 0.00 0.00 0.00 50 1007.5